Showing default

QB50P1, 40025

Orbit data source: Space-Track

QB50P1, 40025 is a payload satellite owned by QB50 (BE) in SSO that was launched on Thu, 19 Jun 2014 UTC via a DNEPR launch vehicle from the Orenburg, Russia (OREN). Payload-class satellites include a variety of spacecraft equipped with specific instruments for various scientific and technological missions. These include communications satellites like Starlink; space stations such as the ISS; scientific satellites like the Hubble; Earth observation satellites from companies like Planet Labs, Umbra, and HawkEye 360; GPS; miniature CubeSats for education and research; and military/defense satellites.

Loading next visibility...
Identifier
40025, 2014-033R
Orbit
SSO
Country
Flag of BEBE / BEL
Related business
Manufacturer
ISIS BV
Mission
Operational Civil Science
Bus & Motor
CUBESAT 2U, Unknown motor
Mass
~2 kg wet, ~2 kg dry
Launch date (UTC)
2014-06-19 (11 years ago)
Launch vehicle
DNEPR
Launch site
Orenburg, Russia (OREN)
Object type
Payload
Rocket body
Debris
Shape & HBR
Box, 0.1 m
Radar Cross Section
0.040 m², Small (<0.1 m²)

Expand to show TLE details & history
Last TLE update: 8 hours ago

TLE from 8 hours ago
0 QB50P1
1 40025U 14033R   25343.51436768  .00013111  00000-0  71734-3 0  9991
2 40025  98.0971 336.9048 0010291 144.1390 216.0533 15.14357306624282
Epoch: 2025-12-09T12:20Z
TLE epoch observation values (Epoch: 2025-12-09T12:20:41.367Z)
Latitude
-0°
Longitude
73.23448°
Altitude
531.738 km
Speed
7.594 km/s
True Right ascension
22h 27m 37s
True Declination
0° 00' 00"
Sunlit
Object was in daylight at epoch
Visualization orbit readout
Latitude
Unknown
Longitude
Unknown
Altitude
Unknown
Speed
Unknown
Apparent Right ascension
Unknown
Apparent Declination
Unknown
Sunlit
N/A
Visualization observer readout
Local Sidereal Time
18:24:43
Azimuth
Unknown
Elevation
Unknown
Doppler factor
Unknown
Orbital elements
Apogee altitude
527.033 km
Perigee altitude
512.836 km
Semi-major axis
6,898.072 km
Eccentricity
0.00103
Inclination
98.0971°
RAAN
336.9048°
Arg. of periapsis
144.139°
True anomaly
215.98397°
Mean anomaly
216.0533°
Eccentric anomaly
216.01863°
Mean motion
3.78836 °/min
Orbital period
95.03 mins
BSTAR
0.00071734
Loading maneuver chart data...
Computing Atmospheric mass density...
Loading historical data...
Loading historical data...
Loading historical data...
Loading historical data...
Loading historical data...
Loading historical data...
Loading historical data...

Documentation

Showing up to 5 results
|